Location: Dumpton Point
(51.3500°N, 1.4433°E)
Time: 10:25:58
(UTC+00:00)

STARLINK-1226 - Pass Details

Date: 09 April 2020
Orbit: 378 x 382 km, 53.0° (Epoch: 26 May)

Event Time Altitude Azimuth Distance (km) Brightness Sun altitude
Rises 19:44:46 0° 288° (WNW) 2,266 8.8 -10.1°
Reaches altitude 10° 19:46:53 10° 280° (W) 1,410 7.1 -10.4°
Maximum altitude 19:49:51 39° 210° (SSW) 592 3.8 -10.8°
Enters shadow 19:52:03 16° 145° (SE) 1,111 4.7 -11.1°
